Winner, SD

4:17 AM CDT on September 23, 2019 (GMT -0500)
Winner

Weather History for KICR - August, 2019

Change the Weather History Date:

Friday, August 16, 2019

  Actual Average Record
Temperature  
Mean Temperature 72 °F 75 °F  
Max Temperature 86 °F 88 °F 91 °F (2016)
Min Temperature 57 °F 62 °F 50 °F (2012)
Degree Days  
Heating Degree Days 0 0  
Month to date heating degree days 1 0  
Since 1 June heating degree days 39 59  
Since 1 July heating degree days 1 5  
Cooling Degree Days 7 10  
Month to date cooling degree days 136 174  
Year to date cooling degree days 647 680  
Since 1 June cooling degree days 626 650  
Growing Degree Days 20 (Base 50)    
Moisture  
Dew Point 59 °F    
Average Humidity 63    
Maximum Humidity 86    
Minimum Humidity 40    
Precipitation  
Precipitation 0.01 in 0.08 in 0.43 in (2017)
Month to date precipitation 3.22 1.37  
Year to date precipitation 19.77 16.05  
Sea Level Pressure  
Sea Level Pressure 29.85 in    
Wind  
Wind Speed 8 mph (SSW)    
Max Wind Speed 17 mph    
Max Gust Speed 26 mph    
Visibility 10 miles    
Events      
T = Trace of Precipitation, MM = Missing Value Source: NWS Daily Summary

Daily Weather History Graph

Daily Weather History Graph

Search for Another Location

Airport or City:

Astronomy

Aug. 16, 2019 Rise Set
Actual Time 6:45 AM CDT 8:41 PM CDT
Civil Twilight 6:14 AM CDT 9:11 PM CDT
Nautical Twilight 5:36 AM CDT 9:49 PM CDT
Astronomical Twilight 4:55 AM CDT 10:30 PM CDT
Moon 9:40 PM CDT (8/16) 7:38 AM CDT (8/16)
Length of Visible Light 14h 57m
Length of Day
13h 55m
Full, 99% of the Moon is Illuminated
Aug 16
Full
Aug 23
Last Quarter
Aug 30
New
Sep 5
First Quarter
Sep 13
Full

Hourly Weather History & Observations

Time (CDT) Temp. Heat Index Dew Point Humidity Pressure Visibility Wind Dir Wind Speed Gust Speed Precip Events Conditions
12:53 AM 59.0 °F - 54.0 °F 83% 29.92 in 10.0 mi SW 3.5 mph - N/A   Clear
1:53 AM 57.0 °F - 54.0 °F 89% 29.91 in 10.0 mi SSW 4.6 mph - N/A   Clear
2:53 AM 60.1 °F - 54.0 °F 80% 29.92 in 10.0 mi SSW 6.9 mph - N/A   Clear
3:53 AM 62.1 °F - 55.9 °F 80% 29.91 in 10.0 mi SSW 5.8 mph - N/A   Clear
4:53 AM 64.0 °F - 57.0 °F 78% 29.89 in 10.0 mi SSW 10.4 mph - N/A   Overcast
5:53 AM 64.9 °F - 59.0 °F 81% 29.88 in 10.0 mi SSW 8.1 mph - N/A   Overcast
6:53 AM 64.9 °F - 57.9 °F 78% 29.87 in 10.0 mi SW 9.2 mph - N/A   Scattered Clouds
7:53 AM 64.9 °F - 59.0 °F 81% 29.88 in 10.0 mi North 3.5 mph - N/A   Overcast
8:53 AM 66.9 °F - 60.1 °F 79% 29.91 in 10.0 mi NNW 4.6 mph - N/A   Overcast
9:53 AM 71.1 °F - 59.0 °F 66% 29.90 in 10.0 mi Variable 4.6 mph - N/A   Clear
10:53 AM 75.0 °F - 61.0 °F 62% 29.90 in 10.0 mi WSW 8.1 mph - N/A   Clear
11:53 AM 78.1 °F - 59.0 °F 52% 29.89 in 10.0 mi West 8.1 mph - N/A   Mostly Cloudy
12:53 PM 80.1 °F 80.9 °F 60.1 °F 50% 29.87 in 10.0 mi West 6.9 mph - N/A   Clear
1:53 PM 82.0 °F 81.6 °F 55.9 °F 41% 29.86 in 10.0 mi WSW 5.8 mph - N/A   Clear
2:53 PM 82.9 °F 82.1 °F 55.9 °F 39% 29.84 in 10.0 mi Variable 4.6 mph - N/A   Clear
3:53 PM 82.9 °F 82.6 °F 57.9 °F 42% 29.82 in 10.0 mi South 6.9 mph - N/A   Mostly Cloudy
4:53 PM 82.9 °F 82.4 °F 57.0 °F 41% 29.80 in 10.0 mi West 4.6 mph - N/A   Partly Cloudy
5:53 PM 84.0 °F 83.5 °F 57.9 °F 41% 29.78 in 10.0 mi East 4.6 mph - N/A   Clear
6:53 PM 79.0 °F - 62.1 °F 56% 29.78 in 10.0 mi SE 6.9 mph - N/A   Partly Cloudy
7:53 PM 73.9 °F - 62.1 °F 66% 29.78 in 10.0 mi SE 10.4 mph - 0.01 in   Scattered Clouds
8:53 PM 71.1 °F - 62.1 °F 73% 29.78 in 10.0 mi SE 8.1 mph - N/A   Clear
9:53 PM 72.0 °F - 63.0 °F 73% 29.80 in 10.0 mi East 6.9 mph - N/A   Mostly Cloudy
10:53 PM 70.0 °F - 62.1 °F 76% 29.81 in 10.0 mi SE 11.5 mph - N/A   Clear
11:53 PM 70.0 °F - 63.0 °F 78% 29.80 in 10.0 mi SSE 13.8 mph - N/A   Clear